Location: Hungerford
(51.4167°N, 1.5167°W)
Time: 09:30:45
(UTC+00:00)

Cosmos 1048 Rocket - Visible Passes

Search period start: 17 January 2021 00:00
Search period end: 27 January 2021 00:00
Orbit: 744 x 791 km, 74.0° (Epoch: 16 January)

Date Brightness Start Highest point End Pass type
(mag) Time Alt. Az. Time Alt. Az. Time Alt. Az.
17 Jan 6.2 18:43:33 10° N 18:43:56 11° NNE 18:43:56 11° NNE visible
17 Jan 6.6 20:24:02 10° NNW 20:24:12 11° NNW 20:24:12 11° NNW visible
18 Jan 6.2 19:46:56 10° N 19:47:49 14° N 19:47:49 14° N visible
19 Jan 5.9 19:09:57 10° N 19:11:28 16° N 19:11:28 16° N visible
19 Jan 6.7 20:51:27 10° NNW 20:51:43 11° NNW 20:51:43 11° NNW visible
20 Jan 5.8 18:33:07 10° N 18:35:10 15° NNE 18:35:10 15° NNE visible
20 Jan 6.1 20:14:12 10° NNW 20:15:25 17° NNW 20:15:25 17° NNW visible
21 Jan 5.8 17:56:38 10° NNE 17:58:28 12° NNE 17:58:55 12° NE visible
21 Jan 5.6 19:37:02 10° NNW 19:39:11 23° N 19:39:11 23° N visible
21 Jan 6.9 21:19:20 10° NW 21:19:27 11° NW 21:19:27 11° NW visible
22 Jan 5.2 18:59:57 10° N 19:03:00 26° NNE 19:03:00 26° NNE visible
22 Jan 6.2 20:41:48 10° NNW 20:43:16 19° NW 20:43:16 19° NW visible
23 Jan 5.2 18:22:59 10° N 18:26:53 21° NE 18:26:53 21° NE visible
23 Jan 5.3 20:04:26 10° NNW 20:07:10 32° NNW 20:07:10 32° NNW visible
24 Jan 5.6 17:46:10 10° N 17:49:12 16° NE 17:50:53 14° ENE visible
24 Jan 4.3 19:27:11 10° NNW 19:31:10 50° N 19:31:10 50° N visible
24 Jan 6.6 21:10:02 10° NW 21:11:28 16° WNW 21:11:28 16° WNW visible
25 Jan 4.3 18:50:02 10° NNW 18:54:56 42° ENE 18:55:18 42° ENE visible
25 Jan 5.7 20:32:17 10° NW 20:35:37 30° WNW 20:35:37 30° WNW visible
26 Jan 4.8 18:12:58 10° N 18:17:26 29° NE 18:19:38 21° E visible
26 Jan 4.5 19:54:47 10° NNW 19:59:47 54° WSW 19:59:57 54° WSW visible
